Regional Weather Roundup
Issued by NWS Portland, ME

Current Version | Previous Version | Text Only | Print | Product List | Glossary Off
Versions: 1 2 3 4 5 6 7 8 9 10 11 12 13 14 15 16 17 18 19 20 21 22 23 24 25 26 27 28 29 30 31 32 33 34 35 36 37 38 39 40 41 42 43 44 45 46 47 48 49 50
000 ASUS41 KGYX 262205 RWRGYX WEATHER ROUNDUP FOR MAINE AND NEW HAMPSHIRE NATIONAL WEATHER SERVICE GRAY ME 600 PM EDT WED APR 26 2017 MEZ002-005-006-010-012-015-018-020-021-024-026-027-029-262300- MAINE CITY SKY/WX TMP DP RH WIND PRES REMARKS PORTLAND LGT RAIN 53 52 96 E9 29.90S FOG SANFORD LGT RAIN 55 54 96 E7 29.88S FOG BAR HARBOR LGT RAIN 56 55 97 S18 29.97F WISCASSET LGT RAIN 56 54 93 VRB6 29.94R FOG ROCKLAND CLOUDY 51 51 100 SE12G20 29.93S FOG FRYEBURG CLOUDY 53 53 100 NE5 29.91F LEWISTONAUBURN LGT RAIN 54 54 100 NE6 29.92R FOG AUGUSTA RAIN 54 52 93 N6 29.94S FOG WATERVILLE LGT RAIN 56 56 100 N6 29.91S FOG BANGOR LGT RAIN 57 57 100 SE5 29.96S FOG GREENVILLE N/A 50 50 100 E8 29.94F MILLINOCKET LGT RAIN 55 55 100 E5 30.00S FOG HOULTON LGT RAIN 55 55 100 VRB5 30.00S PRESQUE ISLE CLOUDY 53 52 96 S3 30.01S FRENCHVILLE LGT RAIN 48 46 93 SE7 29.99S VSB 1/4 CARIBOU CLOUDY 53 51 93 SE5 29.99S $$ NHZ002-005-008-009-011-012-014-262300- NEW HAMPSHIRE CITY SKY/WX TMP DP RH WIND PRES REMARKS ROCHESTER CLOUDY 55 53 93 E7 29.86R FOG NASHUA CLOUDY 57 56 96 N8 29.84S MANCHESTER CLOUDY 56 53 90 NE8 29.84R CONCORD CLOUDY 56 54 93 NE8 29.86R LACONIA CLOUDY 54 52 93 E9 29.88S PLYMOUTH CLOUDY 55 53 92 CALM 29.86F BERLIN CLOUDY 59 51 75 N3 29.88F WHITEFIELD CLOUDY 61 50 67 E15G23 29.84F JAFFREY CLOUDY 55 55 100 VRB6 29.84R FOG KEENE CLOUDY 58 54 86 N6 29.82F LEBANON CLOUDY 59 54 83 NE7 29.83F MT WASHINGTON FOG 45 45 100 S31 N/A VSB 1/16 $$ VTZ005-007-008-262300- VERMONT CITY SKY/WX TMP DP RH WIND PRES REMARKS ST JOHNSBURY N/A 62 57 83 MISG 29.81F MONTPELIER CLOUDY 58 55 90 NW3 29.87F BURLINGTON CLOUDY 69 55 60 SE15 29.78S $$ MAZ007-012-024-CTZ003-RIZ002-NYZ038-NYZ072-262300- SOUTHERN NEW ENGLAND AND NY CITY SKY/WX TMP DP RH WIND PRES REMARKS BOSTON LGT RAIN 53 53 100 NE8 29.81F VSB 1/8 WORCESTER FOG 54 52 93 NE7 29.81S VSB<1/4 NANTUCKET FOG 52 51 97 SE13 29.79R VSB<1/4 PROVIDENCE CLOUDY 61 61 100 NE6 29.78S HARTFORD CLOUDY 61 55 81 N9 29.79S ALBANY PTSUNNY 69 57 65 W8 29.75S NEW YORK CITY CLOUDY 59 56 89 NE5 29.77R FOG $$ ANZ081-ANZ082-ANZ150-NHZ014-MEZ023>029-262300- COASTAL MARINE OBSERVATIONS STATION/POSITION TIME TEMP WIND PRES WAVE AIR SEA DIR/SP/G HT/PER (UTC) (F) (DEG/KT/KT) (MB) (FT/S) MOUNT DESERT ROC 2100 47 1014.7F MATINICUS ROCK 2100 48 130/ 27/ 28 1012.4F ISLE OF SHOALS 2100 50 80/ 11/ 12 1010.5F JEFFREYS LEDGE 2106 44 N/A 8/ 7 CASHES LEDGE BUO 2050 48 43 1012.3 9/ 8 GEORGES BANK BUO 2050 53 43 1014.9 12/11 $$ .............KEY.............. WCI - WIND CHILL TC - TEMPERATURE IN CELSIUS VSB - VISIBILITY IN MILES HX - HEAT INDEX FAIR- INDICATES FEW OR NO CLOUDS BELOW 12,000 FT, WITH NO SIGNIFICANT WEATHER AND/OR OBSTRUCTIONS TO VISIBILITY.

USA.gov is the U.S. government's official web portal to all federal, state and local government web resources and services.